Starlink 11294

operational
NORAD ID: 61054 Int'l Des: 2024-164 Owner: SPXS Country: US Constellation: starlink
LEOCIRCULAR

Starlink 11294について

説明を読み込み中...

リアルタイム位置

3D地球を読み込み中...

次回通過

高度履歴

Altitude vs Time

uPlot chart will show altitude changes over time

軌道要素

1 61054U 24164E 25306.04483559 .00000346 00000-0 77124-5 0 9996
2 61054 53.1591 220.3047 0001042 95.3450 264.7686 15.69713292 65378
Epoch: Nov 2, 2025 • Age: 25 hours

現在のステータス

高度 365.0 km
速度 7.70 km/s
衛星直下点 50.39°N, 150.73°W
打ち上げ日 Sep 13, 2024
運用期間 1.1 years
タイプ internet

技術仕様

分類 Payload
質量 960.00 kg
乾燥質量 910.00 kg
総質量 960.00 kg
長さ 0.30 m
直径 4.10 m
スパン 29.00 m
形状 Box + pan
製造者 SPXS
バスタイプ Starlink V2MD
フェーズステータス In Orbit
所有者/国 SPXS/US

大規模コンステレーション

Loading constellations...